"Sample Date","Sample Time","Sample Value","Units","Flow Rate","Sample Interval","Number Channels","Micron Size 0","Counts/Channel 0","Micron Size 1","Counts/Channel 1","Micron Size 2","Counts/Channel 2","Micron Size 3","Counts/Channel 3","Micron Size 4","Counts/Channel 4","Micron Size 5","Counts/Channel 5","Micron Size 6","Counts/Channel 6","Micron Size 7","Counts/Channel 7","Micron Size 8","Counts/Channel 8","Micron Size 9","Counts/Channel 9","Micron Size 10","Counts/Channel 10","Micron Size 11","Counts/Channel 11","Micron Size 12","Counts/Channel 12","Micron Size 13","Counts/Channel 13","Micron Size 14","Counts/Channel 14","Micron Size 15","Counts/Channel 15","Micron Size 16","Counts/Channel 16","Micron Size 17","Counts/Channel 17","Micron Size 18","Counts/Channel 18","Micron Size 19","Counts/Channel 19","Micron Size 20","Counts/Channel 20","Micron Size 21","Counts/Channel 21","Micron Size 22","Counts/Channel 22","Micron Size 23","Counts/Channel 23","Micron Size 24","Counts/Channel 24","Micron Size 25","Counts/Channel 25","Micron Size 26","Counts/Channel 26","Micron Size 27","Counts/Channel 27","Micron Size 28","Counts/Channel 28","Micron Size 29","Counts/Channel 29","Micron Size 30","Counts/Channel 30","Micron Size 31","Counts/Channel 31"
"03/07/08","01:00:03",7005.000,"cc",28286.588,6.00,6,0.100,5176.000,0.200,809.000,0.300,553.000,0.500,409.000,1.000,58.000,5.000,0
"03/07/08","01:00:09",7273.000,"cc",28368.510,6.00,6,0.100,5431.000,0.200,746.000,0.300,614.000,0.500,415.000,1.000,67.000,5.000,0
"03/07/08","01:00:15",7497.000,"cc",28397.705,6.00,6,0.100,5398.000,0.200,827.000,0.300,661.000,0.500,515.000,1.000,96.000,5.000,0
"03/07/08","01:00:21",7445.000,"cc",28289.344,6.00,6,0.100,5437.000,0.200,830.000,0.300,613.000,0.500,465.000,1.000,100.000,5.000,0
"03/07/08","01:00:27",8522.000,"cc",28284.639,6.00,6,0.100,6555.000,0.200,899.000,0.300,575.000,0.500,417.000,1.000,76.000,5.000,0
"03/07/08","01:00:33",8286.000,"cc",28302.244,6.00,6,0.100,6236.000,0.200,897.000,0.300,571.000,0.500,488.000,1.000,94.000,5.000,0
"03/07/08","01:00:39",8366.000,"cc",28310.711,6.00,6,0.100,6380.000,0.200,886.000,0.300,530.000,0.500,485.000,1.000,85.000,5.000,0
"03/07/08","01:00:45",8163.000,"cc",28345.361,6.00,6,0.100,6253.000,0.200,857.000,0.300,542.000,0.500,430.000,1.000,81.000,5.000,0
"03/07/08","01:00:51",7314.000,"cc",28276.229,6.00,6,0.100,5381.000,0.200,757.000,0.300,636.000,0.500,456.000,1.000,84.000,5.000,0
"03/07/08","01:00:57",7636.000,"cc",28278.932,6.00,6,0.100,5771.000,0.200,792.000,0.300,552.000,0.500,463.000,1.000,58.000,5.000,0
"03/07/08","01:01:03",7563.000,"cc",28373.104,6.00,6,0.100,5489.000,0.200,875.000,0.300,605.000,0.500,515.000,1.000,79.000,5.000,0
"03/07/08","01:01:09",7804.000,"cc",28266.650,6.00,6,0.100,5848.000,0.200,827.000,0.300,578.000,0.500,475.000,1.000,76.000,5.000,0
"03/07/08","01:01:15",7554.000,"cc",28292.840,6.00,6,0.100,5685.000,0.200,840.000,0.300,575.000,0.500,396.000,1.000,58.000,5.000,0
"03/07/08","01:01:21",7095.000,"cc",28332.451,6.00,6,0.100,5299.000,0.200,795.000,0.300,538.000,0.500,394.000,1.000,69.000,5.000,0
"03/07/08","01:01:27",7286.000,"cc",28356.908,6.00,6,0.100,5515.000,0.200,773.000,0.300,517.000,0.500,416.000,1.000,65.000,5.000,0
"03/07/08","01:01:33",14886.000,"cc",28303.379,6.00,6,0.100,12452.000,0.200,1433.000,0.300,559.000,0.500,386.000,1.000,56.000,5.000,0
"03/07/08","01:01:39",8827.000,"cc",28269.051,6.00,6,0.100,6832.000,0.200,973.000,0.300,569.000,0.500,391.000,1.000,62.000,5.000,0
"03/07/08","01:01:45",9994.000,"cc",28302.772,6.00,6,0.100,8059.000,0.200,976.000,0.300,552.000,0.500,345.000,1.000,62.000,5.000,0
"03/07/08","01:01:51",21748.000,"cc",28410.307,6.00,6,0.100,18767.000,0.200,1974.000,0.300,571.000,0.500,385.000,1.000,51.000,5.000,0
"03/07/08","01:01:57",21071.000,"cc",28296.137,6.00,6,0.100,18136.000,0.200,1972.000,0.300,570.000,0.500,329.000,1.000,64.000,5.000,0
"03/07/08","01:02:03",10991.000,"cc",28337.490,6.00,6,0.100,8886.000,0.200,1143.000,0.300,538.000,0.500,366.000,1.000,58.000,5.000,0
"03/07/08","01:02:09",7033.000,"cc",28313.672,6.00,6,0.100,5367.000,0.200,736.000,0.300,520.000,0.500,365.000,1.000,45.000,5.000,0
"03/07/08","01:02:15",6953.000,"cc",28265.191,6.00,6,0.100,5336.000,0.200,706.000,0.300,477.000,0.500,386.000,1.000,48.000,5.000,0
"03/07/08","01:02:21",8683.000,"cc",28238.223,6.00,6,0.100,6870.000,0.200,890.000,0.300,517.000,0.500,347.000,1.000,59.000,5.000,0
"03/07/08","01:02:27",7671.000,"cc",28404.662,6.00,6,0.100,5987.000,0.200,783.000,0.300,488.000,0.500,351.000,1.000,62.000,5.000,0
"03/07/08","01:02:33",9617.000,"cc",28325.856,6.00,6,0.100,7758.000,0.200,950.000,0.300,520.000,0.500,343.000,1.000,46.000,5.000,0
"03/07/08","01:02:39",8235.000,"cc",28246.732,6.00,6,0.100,6345.000,0.200,908.000,0.300,536.000,0.500,389.000,1.000,57.000,5.000,0
"03/07/08","01:02:45",8295.000,"cc",28351.231,6.00,6,0.100,6129.000,0.200,916.000,0.300,690.000,0.500,478.000,1.000,82.000,5.000,0
"03/07/08","01:02:51",7716.000,"cc",28344.721,6.00,6,0.100,5903.000,0.200,817.000,0.300,562.000,0.500,370.000,1.000,64.000,5.000,0
"03/07/08","01:02:57",8656.000,"cc",28303.998,6.00,6,0.100,6935.000,0.200,843.000,0.300,503.000,0.500,333.000,1.000,42.000,5.000,0
"03/07/08","01:03:03",10935.000,"cc",28323.676,6.00,6,0.100,8807.000,0.200,1113.000,0.300,531.000,0.500,426.000,1.000,58.000,5.000,0
"03/07/08","01:03:09",7590.000,"cc",28276.695,6.00,6,0.100,5666.000,0.200,856.000,0.300,581.000,0.500,415.000,1.000,72.000,5.000,0
"03/07/08","01:03:15",7483.000,"cc",28374.018,6.00,6,0.100,5645.000,0.200,790.000,0.300,586.000,0.500,393.000,1.000,69.000,5.000,0
"03/07/08","01:03:21",7572.000,"cc",28328.940,6.00,6,0.100,5671.000,0.200,846.000,0.300,584.000,0.500,409.000,1.000,62.000,5.000,0
"03/07/08","01:03:27",7688.000,"cc",28298.182,6.00,6,0.100,5919.000,0.200,802.000,0.300,542.000,0.500,372.000,1.000,53.000,5.000,0
"03/07/08","01:03:33",8168.000,"cc",28246.547,6.00,6,0.100,6344.000,0.200,847.000,0.300,534.000,0.500,398.000,1.000,45.000,5.000,0
"03/07/08","01:03:39",7676.000,"cc",28248.756,6.00,6,0.100,5855.000,0.200,838.000,0.300,574.000,0.500,367.000,1.000,42.000,5.000,0
"03/07/08","01:03:45",7511.000,"cc",28322.861,6.00,6,0.100,5750.000,0.200,794.000,0.300,577.000,0.500,336.000,1.000,54.000,5.000,0
"03/07/08","01:03:51",7901.000,"cc",28318.357,6.00,6,0.100,6035.000,0.200,838.000,0.300,569.000,0.500,398.000,1.000,61.000,5.000,0
"03/07/08","01:03:57",8389.000,"cc",28396.080,6.00,6,0.100,6422.000,0.200,943.000,0.300,587.000,0.500,394.000,1.000,43.000,5.000,0
"03/07/08","01:04:03",8597.000,"cc",28294.117,6.00,6,0.100,6675.000,0.200,893.000,0.300,574.000,0.500,403.000,1.000,52.000,5.000,0
"03/07/08","01:04:09",8299.000,"cc",28370.400,6.00,6,0.100,6486.000,0.200,861.000,0.300,561.000,0.500,348.000,1.000,43.000,5.000,0
"03/07/08","01:04:15",9062.000,"cc",28287.359,6.00,6,0.100,7240.000,0.200,891.000,0.300,533.000,0.500,353.000,1.000,45.000,5.000,0
"03/07/08","01:04:21",7732.000,"cc",28320.576,6.00,6,0.100,5863.000,0.200,794.000,0.300,602.000,0.500,413.000,1.000,60.000,5.000,0
"03/07/08","01:04:27",7922.000,"cc",28274.723,6.00,6,0.100,6056.000,0.200,825.000,0.300,557.000,0.500,415.000,1.000,69.000,5.000,0
"03/07/08","01:04:33",8128.000,"cc",28316.191,6.00,6,0.100,6144.000,0.200,892.000,0.300,602.000,0.500,427.000,1.000,63.000,5.000,0
"03/07/08","01:04:39",7611.000,"cc",28391.959,6.00,6,0.100,5856.000,0.200,814.000,0.300,547.000,0.500,362.000,1.000,32.000,5.000,0
"03/07/08","01:04:45",7582.000,"cc",28356.873,6.00,6,0.100,5816.000,0.200,800.000,0.300,506.000,0.500,396.000,1.000,64.000,5.000,0
"03/07/08","01:04:51",20346.000,"cc",28332.789,6.00,6,0.100,17476.000,0.200,1863.000,0.300,569.000,0.500,379.000,1.000,59.000,5.000,0
"03/07/08","01:04:57",7997.000,"cc",28293.891,6.00,6,0.100,6118.000,0.200,859.000,0.300,578.000,0.500,382.000,1.000,60.000,5.000,0
"03/07/08","01:05:03",8142.000,"cc",28200.768,6.00,6,0.100,6243.000,0.200,866.000,0.300,570.000,0.500,400.000,1.000,63.000,5.000,0
"03/07/08","01:05:09",8117.000,"cc",28372.588,6.00,6,0.100,6147.000,0.200,901.000,0.300,596.000,0.500,413.000,1.000,60.000,5.000,0
"03/07/08","01:05:15",10941.000,"cc",28382.369,6.00,6,0.100,8883.000,0.200,1114.000,0.300,575.000,0.500,328.000,1.000,41.000,5.000,0
"03/07/08","01:05:21",8702.000,"cc",28321.947,6.00,6,0.100,6896.000,0.200,859.000,0.300,522.000,0.500,369.000,1.000,56.000,5.000,0
"03/07/08","01:05:27",8085.000,"cc",28330.416,6.00,6,0.100,6302.000,0.200,848.000,0.300,550.000,0.500,328.000,1.000,57.000,5.000,0
"03/07/08","01:05:33",9445.000,"cc",28339.703,6.00,6,0.100,7555.000,0.200,927.000,0.300,557.000,0.500,367.000,1.000,39.000,5.000,0
"03/07/08","01:05:39",8752.000,"cc",28249.568,6.00,6,0.100,6867.000,0.200,860.000,0.300,611.000,0.500,375.000,1.000,39.000,5.000,0
"03/07/08","01:05:45",10914.000,"cc",28335.199,6.00,6,0.100,8957.000,0.200,1013.000,0.300,575.000,0.500,333.000,1.000,36.000,5.000,0
"03/07/08","01:05:51",7942.000,"cc",28361.645,6.00,6,0.100,6219.000,0.200,820.000,0.300,529.000,0.500,332.000,1.000,42.000,5.000,0
"03/07/08","01:05:57",8403.000,"cc",28283.082,6.00,6,0.100,6487.000,0.200,928.000,0.300,575.000,0.500,368.000,1.000,45.000,5.000,0
"03/07/08","01:06:03",8554.000,"cc",28301.490,6.00,6,0.100,6593.000,0.200,919.000,0.300,578.000,0.500,409.000,1.000,55.000,5.000,0
"03/07/08","01:06:09",8381.000,"cc",28330.893,6.00,6,0.100,6541.000,0.200,854.000,0.300,563.000,0.500,385.000,1.000,38.000,5.000,0
"03/07/08","01:06:15",7934.000,"cc",28317.793,6.00,6,0.100,6311.000,0.200,788.000,0.300,501.000,0.500,291.000,1.000,43.000,5.000,0
"03/07/08","01:06:21",12341.000,"cc",28337.816,6.00,6,0.100,10251.000,0.200,1166.000,0.300,532.000,0.500,353.000,1.000,39.000,5.000,0
"03/07/08","01:06:27",8697.000,"cc",28270.164,6.00,6,0.100,6833.000,0.200,885.000,0.300,567.000,0.500,364.000,1.000,48.000,5.000,0
"03/07/08","01:06:33",12832.000,"cc",28272.635,6.00,6,0.100,10695.000,0.200,1248.000,0.300,517.000,0.500,326.000,1.000,46.000,5.000,0
"03/07/08","01:06:39",20732.000,"cc",28343.201,6.00,6,0.100,17843.000,0.200,1995.000,0.300,550.000,0.500,311.000,1.000,33.000,5.000,0
"03/07/08","01:06:45",32184.000,"cc",28328.672,6.00,6,0.100,28235.000,0.200,2972.000,0.300,577.000,0.500,349.000,1.000,51.000,5.000,0
"03/07/08","01:06:51",23512.000,"cc",28324.639,6.00,6,0.100,20304.000,0.200,2182.000,0.300,588.000,0.500,392.000,1.000,46.000,5.000,0
"03/07/08","01:06:57",15470.000,"cc",28292.686,6.00,6,0.100,13054.000,0.200,1443.000,0.300,580.000,0.500,340.000,1.000,53.000,5.000,0
"03/07/08","01:07:03",33553.000,"cc",28364.857,6.00,6,0.100,29471.000,0.200,3034.000,0.300,625.000,0.500,361.000,1.000,62.000,5.000,0
"03/07/08","01:07:09",42826.000,"cc",28343.549,6.00,6,0.100,37778.000,0.200,3951.000,0.300,627.000,0.500,415.000,1.000,55.000,5.000,0
"03/07/08","01:07:15",20267.000,"cc",28354.168,6.00,6,0.100,17362.000,0.200,1944.000,0.300,564.000,0.500,349.000,1.000,48.000,5.000,0
"03/07/08","01:07:21",39043.000,"cc",28327.469,6.00,6,0.100,34583.000,0.200,3414.000,0.300,611.000,0.500,385.000,1.000,50.000,5.000,0
"03/07/08","01:07:27",20922.000,"cc",28324.121,6.00,6,0.100,17998.000,0.200,1921.000,0.300,596.000,0.500,353.000,1.000,54.000,5.000,0
"03/07/08","01:07:33",21359.000,"cc",28308.979,6.00,6,0.100,18444.000,0.200,1944.000,0.300,575.000,0.500,346.000,1.000,50.000,5.000,0
"03/07/08","01:07:39",25848.000,"cc",28341.973,6.00,6,0.100,22564.000,0.200,2323.000,0.300,567.000,0.500,352.000,1.000,42.000,5.000,0
"03/07/08","01:07:45",34126.000,"cc",28312.764,6.00,6,0.100,30137.000,0.200,3068.000,0.300,542.000,0.500,334.000,1.000,45.000,5.000,0
"03/07/08","01:07:51",58626.000,"cc",28297.986,6.00,6,0.100,52331.000,0.200,5294.000,0.300,617.000,0.500,345.000,1.000,39.000,5.000,0
"03/07/08","01:07:57",44807.000,"cc",28251.637,6.00,6,0.100,39600.000,0.200,4194.000,0.300,639.000,0.500,343.000,1.000,31.000,5.000,0
"03/07/08","01:08:03",22536.000,"cc",28321.895,6.00,6,0.100,19663.000,0.200,2052.000,0.300,501.000,0.500,295.000,1.000,25.000,5.000,0
"03/07/08","01:08:09",28183.000,"cc",28407.813,6.00,6,0.100,24663.000,0.200,2559.000,0.300,580.000,0.500,345.000,1.000,36.000,5.000,0
"03/07/08","01:08:15",34876.000,"cc",28354.908,6.00,6,0.100,30559.000,0.200,3318.000,0.300,622.000,0.500,334.000,1.000,43.000,5.000,0
"03/07/08","01:08:21",44670.000,"cc",28294.842,6.00,6,0.100,39525.000,0.200,4126.000,0.300,616.000,0.500,361.000,1.000,42.000,5.000,0
"03/07/08","01:08:27",22629.000,"cc",28304.701,6.00,6,0.100,19387.000,0.200,2246.000,0.300,591.000,0.500,368.000,1.000,37.000,5.000,0
"03/07/08","01:08:33",20179.000,"cc",28225.658,6.00,6,0.100,17313.000,0.200,1924.000,0.300,556.000,0.500,343.000,1.000,43.000,5.000,0
"03/07/08","01:08:39",14228.000,"cc",28339.303,6.00,6,0.100,11972.000,0.200,1359.000,0.300,533.000,0.500,325.000,1.000,39.000,5.000,0
"03/07/08","01:08:45",11195.000,"cc",28343.789,6.00,6,0.100,9279.000,0.200,1079.000,0.300,518.000,0.500,284.000,1.000,35.000,5.000,0
"03/07/08","01:08:51",17560.000,"cc",28358.065,6.00,6,0.100,14914.000,0.200,1676.000,0.300,575.000,0.500,346.000,1.000,49.000,5.000,0
"03/07/08","01:08:57",31576.000,"cc",28313.275,6.00,6,0.100,27622.000,0.200,3023.000,0.300,587.000,0.500,296.000,1.000,48.000,5.000,0
"03/07/08","01:09:03",18881.000,"cc",28309.877,6.00,6,0.100,16176.000,0.200,1775.000,0.300,542.000,0.500,355.000,1.000,33.000,5.000,0
"03/07/08","01:09:09",19384.000,"cc",28300.350,6.00,6,0.100,16734.000,0.200,1755.000,0.300,536.000,0.500,321.000,1.000,38.000,5.000,0
"03/07/08","01:09:15",18298.000,"cc",28328.008,6.00,6,0.100,15626.000,0.200,1733.000,0.300,568.000,0.500,338.000,1.000,33.000,5.000,0
"03/07/08","01:09:21",18430.000,"cc",28287.438,6.00,6,0.100,15781.000,0.200,1714.000,0.300,548.000,0.500,340.000,1.000,47.000,5.000,0
"03/07/08","01:09:27",12074.000,"cc",28301.938,6.00,6,0.100,10042.000,0.200,1135.000,0.300,522.000,0.500,340.000,1.000,35.000,5.000,0
"03/07/08","01:09:33",10972.000,"cc",28371.957,6.00,6,0.100,9010.000,0.200,1138.000,0.300,499.000,0.500,285.000,1.000,40.000,5.000,0
"03/07/08","01:09:39",12039.000,"cc",28271.518,6.00,6,0.100,10054.000,0.200,1086.000,0.300,550.000,0.500,308.000,1.000,40.000,5.000,1.000
"03/07/08","01:09:45",9226.000,"cc",28290.523,6.00,6,0.100,7404.000,0.200,857.000,0.300,568.000,0.500,357.000,1.000,40.000,5.000,0
"03/07/08","01:09:51",12780.000,"cc",28331.273,6.00,6,0.100,10550.000,0.200,1298.000,0.300,524.000,0.500,366.000,1.000,42.000,5.000,0
"03/07/08","01:09:57",46581.000,"cc",28326.031,6.00,6,0.100,41342.000,0.200,4231.000,0.300,596.000,0.500,371.000,1.000,41.000,5.000,0
"03/07/08","01:10:03",30959.000,"cc",28307.850,6.00,6,0.100,27114.000,0.200,2864.000,0.300,586.000,0.500,347.000,1.000,48.000,5.000,0
"03/07/08","01:10:09",25827.000,"cc",28312.920,6.00,6,0.100,22568.000,0.200,2357.000,0.300,586.000,0.500,292.000,1.000,24.000,5.000,0
"03/07/08","01:10:15",17048.000,"cc",28310.854,6.00,6,0.100,14631.000,0.200,1544.000,0.300,517.000,0.500,318.000,1.000,38.000,5.000,0
"03/07/08","01:10:21",44669.000,"cc",28341.500,6.00,6,0.100,39728.000,0.200,4023.000,0.300,578.000,0.500,301.000,1.000,39.000,5.000,0
"03/07/08","01:10:27",67813.000,"cc",28268.184,6.00,6,0.100,60538.000,0.200,6274.000,0.300,634.000,0.500,324.000,1.000,43.000,5.000,0
"03/07/08","01:10:33",56838.000,"cc",28349.457,6.00,6,0.100,50685.000,0.200,5231.000,0.300,567.000,0.500,311.000,1.000,44.000,5.000,0
"03/07/08","01:10:39",48871.000,"cc",28306.703,6.00,6,0.100,43618.000,0.200,4341.000,0.300,550.000,0.500,329.000,1.000,33.000,5.000,0
"03/07/08","01:10:45",37763.000,"cc",28324.488,6.00,6,0.100,33562.000,0.200,3404.000,0.300,500.000,0.500,269.000,1.000,28.000,5.000,0
"03/07/08","01:10:51",137422.000,"cc",28365.272,6.00,6,0.100,122226.000,0.200,14000.000,0.300,811.000,0.500,335.000,1.000,50.000,5.000,0
"03/07/08","01:10:57",89164.000,"cc",28319.324,6.00,6,0.100,79546.000,0.200,8537.000,0.300,715.000,0.500,320.000,1.000,46.000,5.000,0
"03/07/08","01:11:03",112323.000,"cc",28254.502,6.00,6,0.100,100295.000,0.200,10931.000,0.300,723.000,0.500,332.000,1.000,42.000,5.000,0
"03/07/08","01:11:09",39970.000,"cc",28325.184,6.00,6,0.100,35513.000,0.200,3565.000,0.300,553.000,0.500,298.000,1.000,41.000,5.000,0
"03/07/08","01:11:15",37835.000,"cc",28414.658,6.00,6,0.100,33545.000,0.200,3392.000,0.300,571.000,0.500,289.000,1.000,38.000,5.000,0
"03/07/08","01:11:21",39818.000,"cc",28226.420,6.00,6,0.100,35286.000,0.200,3640.000,0.300,584.000,0.500,281.000,1.000,27.000,5.000,0
"03/07/08","01:11:27",36802.000,"cc",28338.807,6.00,6,0.100,32510.000,0.200,3423.000,0.300,549.000,0.500,288.000,1.000,32.000,5.000,0
"03/07/08","01:11:33",37651.000,"cc",28324.451,6.00,6,0.100,33190.000,0.200,3609.000,0.300,575.000,0.500,256.000,1.000,21.000,5.000,0
"03/07/08","01:11:39",19815.000,"cc",28333.857,6.00,6,0.100,17041.000,0.200,1905.000,0.300,527.000,0.500,311.000,1.000,31.000,5.000,0
"03/07/08","01:11:45",25114.000,"cc",28379.547,6.00,6,0.100,21787.000,0.200,2426.000,0.300,565.000,0.500,309.000,1.000,27.000,5.000,0
"03/07/08","01:11:51",49962.000,"cc",28309.883,6.00,6,0.100,44221.000,0.200,4750.000,0.300,651.000,0.500,312.000,1.000,27.000,5.000,1.000
"03/07/08","01:11:57",37488.000,"cc",28233.301,6.00,6,0.100,33099.000,0.200,3505.000,0.300,594.000,0.500,252.000,1.000,38.000,5.000,0
"03/07/08","01:12:03",36849.000,"cc",28327.379,6.00,6,0.100,32547.000,0.200,3421.000,0.300,575.000,0.500,290.000,1.000,16.000,5.000,0
"03/07/08","01:12:09",71518.000,"cc",28333.695,6.00,6,0.100,63695.000,0.200,6757.000,0.300,688.000,0.500,341.000,1.000,37.000,5.000,0
"03/07/08","01:12:15",73919.000,"cc",28338.328,6.00,6,0.100,65564.000,0.200,7212.000,0.300,769.000,0.500,334.000,1.000,40.000,5.000,0
"03/07/08","01:12:21",61462.000,"cc",28335.660,6.00,6,0.100,54575.000,0.200,5843.000,0.300,674.000,0.500,339.000,1.000,31.000,5.000,0
"03/07/08","01:12:27",27583.000,"cc",28308.272,6.00,6,0.100,24042.000,0.200,2579.000,0.300,588.000,0.500,334.000,1.000,40.000,5.000,0
"03/07/08","01:12:33",20731.000,"cc",28284.723,6.00,6,0.100,17796.000,0.200,1944.000,0.300,613.000,0.500,338.000,1.000,40.000,5.000,0
"03/07/08","01:12:39",53802.000,"cc",28373.754,6.00,6,0.100,47373.000,0.200,5366.000,0.300,696.000,0.500,323.000,1.000,44.000,5.000,0
"03/07/08","01:12:45",69209.000,"cc",28252.516,6.00,6,0.100,61292.000,0.200,6806.000,0.300,733.000,0.500,342.000,1.000,36.000,5.000,0
"03/07/08","01:12:51",22921.000,"cc",28292.752,6.00,6,0.100,19855.000,0.200,2118.000,0.300,574.000,0.500,341.000,1.000,33.000,5.000,0
"03/07/08","01:12:57",19808.000,"cc",28301.539,6.00,6,0.100,16987.000,0.200,1873.000,0.300,563.000,0.500,339.000,1.000,46.000,5.000,0
"03/07/08","01:13:03",43247.000,"cc",28294.672,6.00,6,0.100,38231.000,0.200,4030.000,0.300,611.000,0.500,316.000,1.000,59.000,5.000,0
"03/07/08","01:13:09",20695.000,"cc",28365.092,6.00,6,0.100,17913.000,0.200,1889.000,0.300,551.000,0.500,305.000,1.000,37.000,5.000,0
"03/07/08","01:13:15",19026.000,"cc",28348.326,6.00,6,0.100,16449.000,0.200,1734.000,0.300,518.000,0.500,287.000,1.000,38.000,5.000,0
"03/07/08","01:13:21",47716.000,"cc",28447.328,6.00,6,0.100,42093.000,0.200,4603.000,0.300,638.000,0.500,340.000,1.000,42.000,5.000,0
"03/07/08","01:13:27",55554.000,"cc",28154.781,6.00,6,0.100,49227.000,0.200,5310.000,0.300,677.000,0.500,306.000,1.000,34.000,5.000,0
"03/07/08","01:13:33",70484.000,"cc",28334.668,6.00,6,0.100,62798.000,0.200,6718.000,0.300,658.000,0.500,281.000,1.000,29.000,5.000,0
"03/07/08","01:13:39",60047.000,"cc",28306.039,6.00,6,0.100,53254.000,0.200,5806.000,0.300,629.000,0.500,330.000,1.000,28.000,5.000,0
"03/07/08","01:13:45",63829.000,"cc",28322.215,6.00,6,0.100,56814.000,0.200,6075.000,0.300,628.000,0.500,276.000,1.000,36.000,5.000,0
"03/07/08","01:13:51",34012.000,"cc",28321.191,6.00,6,0.100,30047.000,0.200,3099.000,0.300,543.000,0.500,278.000,1.000,45.000,5.000,0
"03/07/08","01:13:57",21153.000,"cc",28330.535,6.00,6,0.100,18267.000,0.200,1983.000,0.300,550.000,0.500,319.000,1.000,34.000,5.000,0
"03/07/08","01:14:03",18380.000,"cc",28345.389,6.00,6,0.100,15802.000,0.200,1736.000,0.300,510.000,0.500,300.000,1.000,32.000,5.000,0
"03/07/08","01:14:09",17484.000,"cc",28309.893,6.00,6,0.100,15066.000,0.200,1602.000,0.300,525.000,0.500,259.000,1.000,32.000,5.000,0
"03/07/08","01:14:15",27734.000,"cc",28343.465,6.00,6,0.100,24317.000,0.200,2538.000,0.300,568.000,0.500,281.000,1.000,30.000,5.000,0
"03/07/08","01:14:21",48099.000,"cc",28327.656,6.00,6,0.100,42545.000,0.200,4498.000,0.300,680.000,0.500,340.000,1.000,36.000,5.000,0
"03/07/08","01:14:27",14701.000,"cc",28280.951,6.00,6,0.100,12484.000,0.200,1396.000,0.300,492.000,0.500,298.000,1.000,31.000,5.000,0
"03/07/08","01:14:33",14644.000,"cc",28326.744,6.00,6,0.100,12486.000,0.200,1316.000,0.300,505.000,0.500,302.000,1.000,35.000,5.000,0
"03/07/08","01:14:39",24015.000,"cc",28214.258,6.00,6,0.100,21013.000,0.200,2175.000,0.300,494.000,0.500,299.000,1.000,34.000,5.000,0
"03/07/08","01:14:45",38338.000,"cc",28301.717,6.00,6,0.100,33902.000,0.200,3607.000,0.300,528.000,0.500,273.000,1.000,28.000,5.000,0
"03/07/08","01:14:51",28705.000,"cc",28371.471,6.00,6,0.100,25145.000,0.200,2712.000,0.300,553.000,0.500,267.000,1.000,28.000,5.000,0
"03/07/08","01:14:57",31796.000,"cc",28317.119,6.00,6,0.100,28017.000,0.200,2895.000,0.300,579.000,0.500,268.000,1.000,37.000,5.000,0
"03/07/08","01:15:03",51116.000,"cc",28299.795,6.00,6,0.100,45514.000,0.200,4700.000,0.300,563.000,0.500,296.000,1.000,43.000,5.000,0
"03/07/08","01:15:09",28226.000,"cc",28351.957,6.00,6,0.100,24826.000,0.200,2560.000,0.300,542.000,0.500,271.000,1.000,27.000,5.000,0
"03/07/08","01:15:15",22834.000,"cc",28299.047,6.00,6,0.100,19868.000,0.200,2073.000,0.300,579.000,0.500,281.000,1.000,33.000,5.000,0
"03/07/08","01:15:21",27651.000,"cc",28304.996,6.00,6,0.100,24156.000,0.200,2562.000,0.300,591.000,0.500,313.000,1.000,29.000,5.000,0
"03/07/08","01:15:27",29409.000,"cc",28309.408,6.00,6,0.100,25844.000,0.200,2718.000,0.300,549.000,0.500,267.000,1.000,31.000,5.000,0
"03/07/08","01:15:33",96124.000,"cc",28323.863,6.00,6,0.100,85867.000,0.200,9220.000,0.300,736.000,0.500,268.000,1.000,33.000,5.000,0
"03/07/08","01:15:39",72694.000,"cc",28306.402,6.00,6,0.100,64789.000,0.200,6921.000,0.300,664.000,0.500,284.000,1.000,36.000,5.000,0
"03/07/08","01:15:45",60303.000,"cc",28304.936,6.00,6,0.100,53656.000,0.200,5669.000,0.300,658.000,0.500,293.000,1.000,27.000,5.000,0
"03/07/08","01:15:51",30535.000,"cc",28361.729,6.00,6,0.100,26883.000,0.200,2841.000,0.300,537.000,0.500,252.000,1.000,22.000,5.000,0
"03/07/08","01:15:57",26980.000,"cc",28328.604,6.00,6,0.100,23613.000,0.200,2572.000,0.300,531.000,0.500,241.000,1.000,23.000,5.000,0
"03/07/08","01:16:03",53418.000,"cc",28338.738,6.00,6,0.100,47367.000,0.200,5125.000,0.300,605.000,0.500,288.000,1.000,33.000,5.000,0
"03/07/08","01:16:09",91434.000,"cc",28285.359,6.00,6,0.100,81006.000,0.200,9367.000,0.300,769.000,0.500,268.000,1.000,24.000,5.000,0
"03/07/08","01:16:15",100361.000,"cc",28292.172,6.00,6,0.100,88955.000,0.200,10351.000,0.300,759.000,0.500,267.000,1.000,29.000,5.000,0
"03/07/08","01:16:21",67554.000,"cc",28373.014,6.00,6,0.100,59838.000,0.200,6712.000,0.300,694.000,0.500,272.000,1.000,38.000,5.000,0
"03/07/08","01:16:27",37031.000,"cc",28250.473,6.00,6,0.100,32789.000,0.200,3380.000,0.300,581.000,0.500,249.000,1.000,32.000,5.000,0
"03/07/08","01:16:33",50884.000,"cc",28394.145,6.00,6,0.100,45325.000,0.200,4632.000,0.300,645.000,0.500,255.000,1.000,27.000,5.000,0
"03/07/08","01:16:39",69050.000,"cc",28307.773,6.00,6,0.100,61652.000,0.200,6403.000,0.300,695.000,0.500,265.000,1.000,35.000,5.000,0
"03/07/08","01:16:45",53124.000,"cc",28273.852,6.00,6,0.100,47336.000,0.200,4925.000,0.300,595.000,0.500,244.000,1.000,24.000,5.000,0
"03/07/08","01:16:51",68807.000,"cc",28304.498,6.00,6,0.100,61465.000,0.200,6428.000,0.300,640.000,0.500,245.000,1.000,29.000,5.000,0